{"data":{"norad_id":68845,"epoch":"2026-05-25T04:00:03.998880Z","epoch_age_seconds":63756,"freshness":"FRESH","line1":"1 68845U 26094G   26145.16671295  .00008762  00000+0  16266-3 0  9993","line2":"2 68845  97.2848 159.8742 0001202  81.5382  13.8200 15.49176144  5673","mean_motion":15.49176144,"eccentricity":0.0001202,"inclination_deg":97.2848,"raan_deg":159.8742,"arg_perigee_deg":81.5382,"mean_anomaly_deg":13.82,"bstar":0.00016266,"rev_number":567,"period_min":92.952631989407,"perigee_km":418.31784118796,"apogee_km":419.9519053463,"semimajor_km":6797.2718732671,"source":"CELESTRAK","updated_at":"2026-05-25T13:38:22.046820Z"}}